| time (UTC) | temp F | wind direction | speed MPH | gust MPH | rain 1hr in | rain 24hr in | rain mn in | humidity % | barometer mb |
| 20260508010021 | 51 | 340 | 0.0 | 1.0 | 0.00 | 0.00 | 0.00 | 63 | 1011.1 |
| 20260508004515 | 52 | 340 | 0.0 | 0.0 | 0.00 | 0.00 | 0.00 | 60 | 1011.0 |
| 20260508003029 | 53 | 340 | 0.0 | 2.0 | 0.00 | 0.00 | 0.00 | 56 | 1010.9 |
| 20260508001508 | 54 | 340 | 0.0 | 3.0 | 0.00 | 0.00 | 0.00 | 54 | 1010.9 |
| 20260508000006 | 55 | 340 | 1.0 | 3.0 | 0.00 | 0.00 | 0.00 | 52 | 1010.6 |
| 20260507234505 | 56 | 340 | 1.0 | 2.0 | 0.00 | 0.00 | 0.00 | 48 | 1010.6 |
| 20260507233105 | 56 | 340 | 0.0 | 10.0 | 0.00 | 0.00 | 0.00 | 47 | 1010.4 |
| 20260507231504 | 57 | 24 | 5.0 | 10.0 | 0.00 | 0.00 | 0.00 | 46 | 1010.3 |
| 20260507230008 | 57 | 342 | 4.0 | 10.0 | 0.00 | 0.00 | 0.00 | 45 | 1010.3 |
| 20260507224506 | 57 | 23 | 3.0 | 9.0 | 0.00 | 0.00 | 0.00 | 46 | 1010.3 |
| 20260507223003 | 57 | 30 | 3.0 | 13.0 | 0.00 | 0.00 | 0.00 | 45 | 1010.2 |
| 20260507221502 | 59 | 31 | 2.0 | 9.0 | 0.00 | 0.00 | 0.00 | 42 | 1010.2 |
| 20260507214605 | 58 | 29 | 5.0 | 11.0 | 0.00 | 0.00 | 0.00 | 45 | 1010.3 |
| 20260507214503 | 58 | 9 | 3.0 | 11.0 | 0.00 | 0.00 | 0.00 | 44 | 1010.3 |
| 20260507213058 | 58 | 347 | 3.0 | 9.0 | 0.00 | 0.00 | 0.00 | 44 | 1010.4 |
| 20260507211623 | 56 | 116 | 2.0 | 9.0 | 0.00 | 0.00 | 0.00 | 46 | 1010.5 |
| 20260507210058 | 57 | 286 | 2.0 | 11.0 | 0.00 | 0.00 | 0.00 | 44 | 1010.4 |
| 20260507204604 | 58 | 300 | 5.0 | 11.0 | 0.00 | 0.00 | 0.00 | 43 | 1010.4 |
| 20260507203056 | 59 | 360 | 4.0 | 12.0 | 0.00 | 0.00 | 0.00 | 41 | 1010.5 |
| 20260507201610 | 57 | 281 | 6.0 | 12.0 | 0.00 | 0.00 | 0.00 | 45 | 1010.5 |
| 20260507194555 | 57 | 348 | 3.0 | 9.0 | 0.00 | 0.02 | 0.00 | 44 | 1010.8 |
| 20260507193049 | 56 | 14 | 5.0 | 13.0 | 0.00 | 0.02 | 0.00 | 44 | 1011.0 |
| 20260507191551 | 56 | 228 | 3.0 | 13.0 | 0.00 | 0.02 | 0.00 | 45 | 1011.0 |
| 20260507190047 | 58 | 188 | 2.0 | 8.0 | 0.00 | 0.02 | 0.00 | 43 | 1011.1 |
| 20260507184547 | 59 | 280 | 2.0 | 11.0 | 0.00 | 0.02 | 0.00 | 43 | 1011.2 |
| 20260507183042 | 57 | 164 | 3.0 | 10.0 | 0.00 | 0.02 | 0.00 | 44 | 1011.2 |
| 20260507181639 | 56 | 274 | 6.0 | 11.0 | 0.00 | 0.02 | 0.00 | 43 | 1011.5 |
| 20260507180043 | 55 | 302 | 4.0 | 13.0 | 0.00 | 0.02 | 0.00 | 48 | 1011.6 |
| 20260507174536 | 55 | 5 | 1.0 | 10.0 | 0.00 | 0.03 | 0.00 | 48 | 1012.0 |
| 20260507173036 | 55 | 243 | 1.0 | 9.0 | 0.00 | 0.03 | 0.00 | 46 | 1011.9 |
| 20260507171532 | 54 | 292 | 3.0 | 9.0 | 0.00 | 0.03 | 0.00 | 48 | 1012.1 |
| 20260507170031 | 55 | 196 | 3.0 | 7.0 | 0.00 | 0.03 | 0.00 | 47 | 1012.1 |
| 20260507164530 | 55 | 16 | 5.0 | 11.0 | 0.00 | 0.04 | 0.00 | 45 | 1012.3 |
| 20260507163027 | 53 | 296 | 2.0 | 7.0 | 0.00 | 0.04 | 0.00 | 49 | 1012.5 |
| 20260507161526 | 53 | 252 | 1.0 | 8.0 | 0.00 | 0.04 | 0.00 | 48 | 1012.7 |
| 20260507160033 | 53 | 163 | 5.0 | 10.0 | 0.00 | 0.04 | 0.00 | 46 | 1012.8 |
| 20260507154523 | 53 | 301 | 4.0 | 14.0 | 0.00 | 0.06 | 0.00 | 49 | 1013.0 |
| 20260507153030 | 52 | 256 | 7.0 | 13.0 | 0.00 | 0.06 | 0.00 | 50 | 1013.1 |
| 20260507151521 | 52 | 294 | 4.0 | 9.0 | 0.00 | 0.06 | 0.00 | 49 | 1013.3 |
| 20260507150019 | 51 | 288 | 3.0 | 9.0 | 0.00 | 0.06 | 0.00 | 52 | 1013.4 |
| 20260507144518 | 50 | 197 | 3.0 | 9.0 | 0.00 | 0.08 | 0.00 | 55 | 1013.6 |
| 20260507143014 | 50 | 219 | 4.0 | 8.0 | 0.00 | 0.08 | 0.00 | 55 | 1013.6 |
| 20260507141512 | 49 | 272 | 0.0 | 7.0 | 0.00 | 0.08 | 0.00 | 57 | 1013.7 |
| 20260507140018 | 48 | 282 | 1.0 | 12.0 | 0.00 | 0.08 | 0.00 | 65 | 1013.7 |
| 20260507134507 | 47 | 186 | 2.0 | 9.0 | 0.00 | 0.17 | 0.00 | 71 | 1013.8 |
| 20260507133004 | 47 | 260 | 3.0 | 8.0 | 0.00 | 0.17 | 0.00 | 72 | 1013.9 |
| 20260507131501 | 46 | 167 | 1.0 | 5.0 | 0.00 | 0.17 | 0.00 | 73 | 1013.8 |
| 20260507130059 | 45 | 292 | 1.0 | 4.0 | 0.00 | 0.17 | 0.00 | 76 | 1013.9 |
| 20260507124600 | 44 | 288 | 2.0 | 5.0 | 0.00 | 0.27 | 0.00 | 80 | 1014.0 |
| 20260507123059 | 42 | 266 | 1.0 | 8.0 | 0.00 | 0.27 | 0.00 | 83 | 1014.2 |
| 20260507121555 | 41 | 339 | 2.0 | 8.0 | 0.00 | 0.27 | 0.00 | 87 | 1014.1 |
| 20260507114553 | 38 | 306 | 0.0 | 2.0 | 0.00 | 0.28 | 0.00 | 90 | 1013.9 |
| 20260507113053 | 36 | 306 | 0.0 | 1.0 | 0.00 | 0.28 | 0.00 | 89 | 1013.8 |
| 20260507111552 | 35 | 306 | 0.0 | 0.0 | 0.00 | 0.28 | 0.00 | 88 | 1013.8 |
| 20260507110055 | 35 | 306 | 0.0 | 1.0 | 0.00 | 0.28 | 0.00 | 87 | 1013.8 |
| 20260507104550 | 35 | 306 | 0.0 | 1.0 | 0.00 | 0.30 | 0.00 | 86 | 1013.7 |
| 20260507103048 | 35 | 306 | 0.0 | 1.0 | 0.00 | 0.30 | 0.00 | 85 | 1013.4 |
| 20260507101600 | 36 | 306 | 0.0 | 1.0 | 0.00 | 0.30 | 0.00 | 85 | 1013.3 |
| 20260507100043 | 37 | 306 | 0.0 | 2.0 | 0.00 | 0.30 | 0.00 | 85 | 1013.3 |
| 20260507094551 | 37 | 306 | 0.0 | 2.0 | 0.00 | 0.30 | 0.00 | 85 | 1013.2 |
| 20260507093037 | 39 | 306 | 0.0 | 1.0 | 0.00 | 0.30 | 0.00 | 84 | 1013.2 |
| 20260507091550 | 40 | 306 | 0.0 | 1.0 | 0.00 | 0.30 | 0.00 | 85 | 1013.1 |
| 20260507090030 | 41 | 306 | 0.0 | 2.0 | 0.00 | 0.30 | 0.00 | 84 | 1013.3 |
| 20260507084529 | 41 | 306 | 0.0 | 2.0 | 0.00 | 0.31 | 0.00 | 84 | 1013.3 |
| 20260507083026 | 42 | 306 | 0.0 | 2.0 | 0.00 | 0.31 | 0.00 | 84 | 1013.3 |
| 20260507081534 | 43 | 306 | 1.0 | 4.0 | 0.00 | 0.31 | 0.00 | 85 | 1013.1 |
| 20260507080024 | 43 | 306 | 1.0 | 2.0 | 0.00 | 0.31 | 0.00 | 85 | 1013.2 |
| 20260507074522 | 43 | 306 | 1.0 | 3.0 | 0.00 | 0.31 | 0.00 | 85 | 1013.1 |
| 20260507073021 | 43 | 306 | 1.0 | 5.0 | 0.00 | 0.31 | 0.00 | 85 | 1013.1 |
| 20260507071520 | 43 | 306 | 0.0 | 4.0 | 0.00 | 0.31 | 0.00 | 85 | 1013.2 |
| 20260507070017 | 44 | 305 | 2.0 | 5.0 | 0.00 | 0.31 | 0.00 | 86 | 1013.3 |
| 20260507064515 | 44 | 281 | 2.0 | 7.0 | 0.00 | 0.31 | 0.00 | 87 | 1013.1 |
| 20260507063011 | 44 | 11 | 3.0 | 6.0 | 0.00 | 0.31 | 0.00 | 88 | 1012.8 |
| 20260507061526 | 44 | 306 | 1.0 | 9.0 | 0.00 | 0.31 | 0.00 | 90 | 1012.7 |
| 20260507060010 | 45 | 360 | 2.0 | 9.0 | 0.00 | 0.31 | 0.00 | 90 | 1012.5 |
| 20260507054506 | 46 | 355 | 0.0 | 6.0 | 0.00 | 0.31 | 0.00 | 91 | 1012.4 |
| 20260507053004 | 45 | 264 | 2.0 | 4.0 | 0.00 | 0.31 | 0.00 | 91 | 1012.1 |
| 20260507051503 | 45 | 264 | 0.0 | 1.0 | 0.00 | 0.31 | 0.00 | 91 | 1012.3 |
| 20260507050006 | 45 | 264 | 0.0 | 2.0 | 0.00 | 0.31 | 0.00 | 91 | 1012.3 |
| 20260507044604 | 45 | 264 | 0.0 | 1.0 | 0.00 | 0.31 | 0.00 | 90 | 1012.5 |
| 20260507043100 | 45 | 264 | 0.0 | 2.0 | 0.00 | 0.31 | 0.00 | 90 | 1012.5 |
| 20260507041600 | 45 | 264 | 0.0 | 1.0 | 0.00 | 0.31 | 0.00 | 90 | 1012.2 |
| 20260507040056 | 45 | 264 | 0.0 | 2.0 | 0.00 | 0.31 | 0.00 | 90 | 1012.1 |
| 20260507034559 | 45 | 264 | 0.0 | 2.0 | 0.00 | 0.31 | 0.31 | 90 | 1012.1 |
| 20260507033054 | 45 | 264 | 0.0 | 2.0 | 0.00 | 0.31 | 0.31 | 89 | 1012.0 |
| 20260507031553 | 45 | 264 | 0.0 | 2.0 | 0.00 | 0.31 | 0.31 | 89 | 1012.1 |
| 20260507030100 | 45 | 264 | 0.0 | 2.0 | 0.00 | 0.31 | 0.31 | 90 | 1012.0 |
| 20260507024550 | 45 | 264 | 1.0 | 2.0 | 0.00 | 0.31 | 0.31 | 89 | 1012.5 |
| 20260507023048 | 46 | 264 | 0.0 | 1.0 | 0.00 | 0.31 | 0.31 | 89 | 1012.2 |
| 20260507021604 | 46 | 264 | 0.0 | 2.0 | 0.00 | 0.31 | 0.31 | 89 | 1012.7 |
| 20260507020052 | 46 | 264 | 0.0 | 2.0 | 0.00 | 0.31 | 0.31 | 89 | 1012.7 |
| 20260507014602 | 46 | 264 | 0.0 | 2.0 | 0.00 | 0.31 | 0.31 | 89 | 1012.6 |
| 20260507013044 | 46 | 264 | 0.0 | 2.0 | 0.00 | 0.31 | 0.31 | 89 | 1012.5 |
| 20260507011543 | 46 | 264 | 0.0 | 1.0 | 0.00 | 0.31 | 0.31 | 88 | 1012.6 |
| 20260507010044 | 46 | 264 | 0.0 | 2.0 | 0.00 | 0.31 | 0.31 | 89 | 1012.3 |